Location: Alafon
(8.4500°N, 4.2333°E)
Time: 20:36:28
(UTC+00:00)

Vanguard 2 - Pass Details

Date: 04 August 2021
Orbit: 553 x 2937 km, 32.9° (Epoch: 27 September)

Event Time Altitude Azimuth Distance (km) Brightness Sun altitude
Rises 13:48:16 0° 260° (W) 5,608 12.3 59.8°
Reaches altitude 10° 13:53:29 10° 244° (WSW) 5,003 12.1 58.5°
Maximum altitude 14:02:51 19° 205° (SSW) 4,795 11.9 56.3°
Drops below altitude 10° 14:13:35 10° 167° (SSE) 5,761 11.9 53.8°
Sets 14:20:34 0° 151° (SSE) 6,740 12.1 52.2°
